Time,TemperatureF,DewpointF,PressureIn,WindDirection,WindDirectionDegrees,WindSpeedMPH,WindSpeedGustMPH,Humidity,HourlyPrecipIn,Conditions,Clouds,dailyrainin,SoftwareType,DateUTC
2013-05-22 00:00:00,73.8,32.6,29.59,SW,228,20.0,23.0,22,0.00,,,0.00,Wunderground v.1.15,2013-05-22 07:00:00,
2013-05-22 00:06:00,73.8,32.6,29.59,SW,230,20.0,23.0,22,0.00,,,0.00,Wunderground v.1.15,2013-05-22 07:06:00,
2013-05-22 00:12:00,73.7,32.5,29.60,SW,225,20.0,21.0,22,0.00,,,0.00,Wunderground v.1.15,2013-05-22 07:12:00,
2013-05-22 00:18:00,73.5,33.4,29.60,WSW,242,15.0,21.0,23,0.00,,,0.00,Wunderground v.1.15,2013-05-22 07:18:00,
2013-05-22 00:24:00,73.4,33.3,29.60,SW,225,15.0,21.0,23,0.00,,,0.00,Wunderground v.1.15,2013-05-22 07:24:00,
2013-05-22 00:30:00,73.4,33.3,29.60,SW,234,18.0,18.0,23,0.00,,,0.00,Wunderground v.1.15,2013-05-22 07:30:00,
2013-05-22 00:36:00,73.4,33.3,29.60,SW,222,18.0,22.0,23,0.00,,,0.00,Wunderground v.1.15,2013-05-22 07:36:00,
2013-05-22 00:42:00,73.3,33.2,29.60,SW,228,18.0,22.0,23,0.00,,,0.00,Wunderground v.1.15,2013-05-22 07:42:00,
2013-05-22 00:48:00,73.2,34.2,29.60,WSW,252,18.0,22.0,24,0.00,,,0.00,Wunderground v.1.15,2013-05-22 07:48:00,
2013-05-22 00:54:00,72.9,34.0,29.60,SW,232,15.0,18.0,24,0.00,,,0.00,Wunderground v.1.15,2013-05-22 07:54:00,
2013-05-22 01:00:00,72.8,33.9,29.60,WSW,245,15.0,15.0,24,0.00,,,0.00,Wunderground v.1.15,2013-05-22 08:00:00,
2013-05-22 01:06:00,72.6,34.7,29.60,SW,235,14.0,16.0,25,0.00,,,0.00,Wunderground v.1.15,2013-05-22 08:06:00,
2013-05-22 01:12:00,72.3,34.5,29.59,West,260,14.0,19.0,25,0.00,,,0.00,Wunderground v.1.15,2013-05-22 08:12:00,
2013-05-22 01:18:00,72.1,34.3,29.59,WSW,245,13.0,19.0,25,0.00,,,0.00,Wunderground v.1.15,2013-05-22 08:18:00,
2013-05-22 01:24:00,72.1,34.3,29.59,SW,227,13.0,16.0,25,0.00,,,0.00,Wunderground v.1.15,2013-05-22 08:24:00,
2013-05-22 01:30:00,72.1,34.3,29.58,WSW,238,16.0,22.0,25,0.00,,,0.00,Wunderground v.1.15,2013-05-22 08:30:00,
2013-05-22 01:36:00,72.2,35.4,29.58,SW,231,19.0,26.0,26,0.00,,,0.00,Wunderground v.1.15,2013-05-22 08:36:00,
2013-05-22 01:42:00,72.2,35.4,29.57,SW,217,22.0,26.0,26,0.00,,,0.00,Wunderground v.1.15,2013-05-22 08:42:00,
2013-05-22 01:48:00,72.3,35.5,29.57,WSW,237,21.0,26.0,26,0.00,,,0.00,Wunderground v.1.15,2013-05-22 08:48:00,
2013-05-22 01:54:00,72.1,35.3,29.57,WSW,238,19.0,23.0,26,0.00,,,0.00,Wunderground v.1.15,2013-05-22 08:54:00,
2013-05-22 02:00:00,72.1,35.3,29.57,SW,218,20.0,20.0,26,0.00,,,0.00,Wunderground v.1.15,2013-05-22 09:00:00,
2013-05-22 02:06:00,72.1,35.3,29.57,WSW,237,20.0,20.0,26,0.00,,,0.00,Wunderground v.1.15,2013-05-22 09:06:00,
2013-05-22 02:12:00,72.0,36.2,29.57,SW,235,19.0,21.0,27,0.00,,,0.00,Wunderground v.1.15,2013-05-22 09:12:00,
2013-05-22 02:18:00,71.9,36.1,29.57,SW,233,17.0,21.0,27,0.00,,,0.00,Wunderground v.1.15,2013-05-22 09:18:00,
2013-05-22 02:24:00,71.9,36.1,29.56,SSW,207,19.0,22.0,27,0.00,,,0.00,Wunderground v.1.15,2013-05-22 09:24:00,
2013-05-22 02:30:00,71.9,36.1,29.56,SW,227,19.0,24.0,27,0.00,,,0.00,Wunderground v.1.15,2013-05-22 09:30:00,
2013-05-22 02:36:00,71.9,36.1,29.56,SW,222,20.0,24.0,27,0.00,,,0.00,Wunderground v.1.15,2013-05-22 09:36:00,
2013-05-22 02:42:00,71.8,36.0,29.56,SW,234,19.0,23.0,27,0.00,,,0.00,Wunderground v.1.15,2013-05-22 09:42:00,
2013-05-22 02:48:00,71.7,35.9,29.56,SW,217,19.0,27.0,27,0.00,,,0.00,Wunderground v.1.15,2013-05-22 09:48:00,
2013-05-22 02:54:00,71.7,36.8,29.56,SW,225,18.0,20.0,28,0.00,,,0.00,Wunderground v.1.15,2013-05-22 09:54:00,
2013-05-22 03:00:00,71.6,36.8,29.55,SW,215,18.0,18.0,28,0.00,,,0.00,Wunderground v.1.15,2013-05-22 10:00:00,
2013-05-22 03:06:00,71.6,36.8,29.55,SSE,168,18.0,19.0,28,0.00,,,0.00,Wunderground v.1.15,2013-05-22 10:06:00,
2013-05-22 03:12:00,71.6,35.8,29.55,SW,225,19.0,20.0,27,0.00,,,0.00,Wunderground v.1.15,2013-05-22 10:12:00,
2013-05-22 03:18:00,71.4,36.6,29.54,SW,233,18.0,22.0,28,0.00,,,0.00,Wunderground v.1.15,2013-05-22 10:18:00,
2013-05-22 03:24:00,71.3,35.6,29.54,SW,234,16.0,18.0,27,0.00,,,0.00,Wunderground v.1.15,2013-05-22 10:24:00,
2013-05-22 03:30:00,71.3,36.5,29.54,SW,225,18.0,18.0,28,0.00,,,0.00,Wunderground v.1.15,2013-05-22 10:30:00,
2013-05-22 03:36:00,71.3,36.5,29.53,WSW,237,19.0,22.0,28,0.00,,,0.00,Wunderground v.1.15,2013-05-22 10:36:00,
2013-05-22 03:42:00,71.1,36.3,29.53,SW,226,19.0,19.0,28,0.00,,,0.00,Wunderground v.1.15,2013-05-22 10:42:00,
2013-05-22 03:48:00,71.0,36.2,29.53,SW,232,19.0,25.0,28,0.00,,,0.00,Wunderground v.1.15,2013-05-22 10:48:00,
2013-05-22 03:54:00,70.9,36.1,29.53,SW,232,17.0,19.0,28,0.00,,,0.00,Wunderground v.1.15,2013-05-22 10:54:00,
2013-05-22 04:00:00,70.6,35.9,29.53,WSW,241,15.0,21.0,28,0.00,,,0.00,Wunderground v.1.15,2013-05-22 11:00:00,
2013-05-22 04:06:00,70.6,35.9,29.53,WSW,240,19.0,26.0,28,0.00,,,0.00,Wunderground v.1.15,2013-05-22 11:06:00,
2013-05-22 04:12:00,70.7,36.0,29.53,SW,215,20.0,21.0,28,0.00,,,0.00,Wunderground v.1.15,2013-05-22 11:12:00,
2013-05-22 04:18:00,70.7,36.0,29.53,WSW,242,19.0,21.0,28,0.00,,,0.00,Wunderground v.1.15,2013-05-22 11:18:00,
2013-05-22 04:24:00,70.7,36.0,29.53,SW,225,18.0,21.0,28,0.00,,,0.00,Wunderground v.1.15,2013-05-22 11:24:00,
2013-05-22 04:30:00,70.7,36.0,29.53,SW,223,19.0,20.0,28,0.00,,,0.00,Wunderground v.1.15,2013-05-22 11:30:00,
2013-05-22 04:36:00,70.5,35.8,29.53,SW,219,18.0,21.0,28,0.00,,,0.00,Wunderground v.1.15,2013-05-22 11:36:00,
2013-05-22 04:42:00,70.4,34.8,29.53,SW,227,18.0,18.0,27,0.00,,,0.00,Wunderground v.1.15,2013-05-22 11:42:00,
2013-05-22 04:48:00,70.2,35.5,29.53,SW,219,16.0,18.0,28,0.00,,,0.00,Wunderground v.1.15,2013-05-22 11:48:00,
2013-05-22 04:54:00,69.9,34.4,29.53,SW,229,14.0,16.0,27,0.00,,,0.00,Wunderground v.1.15,2013-05-22 11:54:00,
2013-05-22 05:00:00,69.8,34.3,29.53,SW,224,15.0,20.0,27,0.00,,,0.00,Wunderground v.1.15,2013-05-22 12:00:00,
2013-05-22 05:06:00,69.8,34.3,29.53,SW,231,17.0,22.0,27,0.00,,,0.00,Wunderground v.1.15,2013-05-22 12:06:00,
2013-05-22 05:12:00,69.7,34.2,29.53,SW,225,16.0,17.0,27,0.00,,,0.00,Wunderground v.1.15,2013-05-22 12:12:00,
2013-05-22 05:18:00,69.5,34.9,29.53,SW,223,17.0,20.0,28,0.00,,,0.00,Wunderground v.1.15,2013-05-22 12:18:00,
2013-05-22 05:24:00,69.3,34.8,29.53,SSW,204,17.0,18.0,28,0.00,,,0.00,Wunderground v.1.15,2013-05-22 12:24:00,
2013-05-22 05:30:00,69.0,34.5,29.53,SW,232,17.0,17.0,28,0.00,,,0.00,Wunderground v.1.15,2013-05-22 12:30:00,
2013-05-22 05:36:00,68.8,34.3,29.53,SSW,205,18.0,25.0,28,0.00,,,0.00,Wunderground v.1.15,2013-05-22 12:36:00,
2013-05-22 05:42:00,68.6,34.2,29.52,SW,216,17.0,24.0,28,0.00,,,0.00,Wunderground v.1.15,2013-05-22 12:42:00,
2013-05-22 05:48:00,68.4,34.0,29.52,SW,217,19.0,26.0,28,0.00,,,0.00,Wunderground v.1.15,2013-05-22 12:48:00,
2013-05-22 05:54:00,68.4,34.0,29.52,SW,217,20.0,24.0,28,0.00,,,0.00,Wunderground v.1.15,2013-05-22 12:54:00,
2013-05-22 06:00:00,68.4,34.0,29.52,SW,222,19.0,22.0,28,0.00,,,0.00,Wunderground v.1.15,2013-05-22 13:00:00,
2013-05-22 06:06:00,68.6,34.2,29.53,SW,217,21.0,24.0,28,0.00,,,0.00,Wunderground v.1.15,2013-05-22 13:06:00,
2013-05-22 06:12:00,68.8,33.4,29.53,SW,221,21.0,21.0,27,0.00,,,0.00,Wunderground v.1.15,2013-05-22 13:12:00,
2013-05-22 06:18:00,68.8,33.4,29.52,SW,223,21.0,28.0,27,0.00,,,0.00,Wunderground v.1.15,2013-05-22 13:18:00,
2013-05-22 06:24:00,68.9,33.5,29.53,SW,222,23.0,27.0,27,0.00,,,0.00,Wunderground v.1.15,2013-05-22 13:24:00,
2013-05-22 06:30:00,69.1,33.7,29.53,SW,225,22.0,22.0,27,0.00,,,0.00,Wunderground v.1.15,2013-05-22 13:30:00,
2013-05-22 06:36:00,69.3,33.9,29.53,SW,231,22.0,23.0,27,0.00,,,0.00,Wunderground v.1.15,2013-05-22 13:36:00,
2013-05-22 06:42:00,69.4,33.9,29.53,SSW,211,20.0,22.0,27,0.00,,,0.00,Wunderground v.1.15,2013-05-22 13:42:00,
2013-05-22 06:48:00,68.7,34.3,29.54,South,186,18.0,22.0,28,0.00,,,0.00,Wunderground v.1.15,2013-05-22 13:48:00,
2013-05-22 06:54:00,68.3,33.9,29.54,SSW,206,17.0,18.0,28,0.00,,,0.00,Wunderground v.1.15,2013-05-22 13:54:00,
2013-05-22 07:00:00,68.1,33.7,29.53,South,187,18.0,21.0,28,0.00,,,0.00,Wunderground v.1.15,2013-05-22 14:00:00,
2013-05-22 07:06:00,68.6,33.3,29.54,South,184,22.0,31.0,27,0.00,,,0.00,Wunderground v.1.15,2013-05-22 14:06:00,
2013-05-22 07:12:00,68.5,34.1,29.54,South,178,23.0,24.0,28,0.00,,,0.00,Wunderground v.1.15,2013-05-22 14:12:00,
2013-05-22 07:18:00,68.8,33.4,29.54,South,189,23.0,29.0,27,0.00,,,0.00,Wunderground v.1.15,2013-05-22 14:18:00,
2013-05-22 07:24:00,69.2,33.8,29.54,SSW,200,25.0,29.0,27,0.00,,,0.00,Wunderground v.1.15,2013-05-22 14:24:00,
2013-05-22 07:30:00,69.3,32.9,29.55,South,191,25.0,25.0,26,0.00,,,0.00,Wunderground v.1.15,2013-05-22 14:30:00,
2013-05-22 07:36:00,69.6,33.2,29.54,SSW,194,25.0,29.0,26,0.00,,,0.00,Wunderground v.1.15,2013-05-22 14:36:00,
2013-05-22 07:42:00,69.5,33.1,29.55,SSW,202,26.0,26.0,26,0.00,,,0.00,Wunderground v.1.15,2013-05-22 14:42:00,
2013-05-22 07:48:00,69.2,32.8,29.55,South,190,24.0,26.0,26,0.00,,,0.00,Wunderground v.1.15,2013-05-22 14:48:00,
2013-05-22 07:54:00,69.3,32.9,29.55,SW,220,23.0,26.0,26,0.00,,,0.00,Wunderground v.1.15,2013-05-22 14:54:00,
2013-05-22 08:00:00,69.5,33.1,29.55,SSW,209,22.0,24.0,26,0.00,,,0.00,Wunderground v.1.15,2013-05-22 15:00:00,
2013-05-22 08:06:00,69.7,33.3,29.55,SW,221,21.0,24.0,26,0.00,,,0.00,Wunderground v.1.15,2013-05-22 15:06:00,
2013-05-22 08:12:00,69.3,32.9,29.55,South,180,20.0,27.0,26,0.00,,,0.00,Wunderground v.1.15,2013-05-22 15:12:00,
2013-05-22 08:17:00,69.4,32.0,29.55,SSW,199,19.0,27.0,25,0.00,,,0.00,Wunderground v.1.15,2013-05-22 15:17:00,
2013-05-22 08:24:00,70.7,31.1,29.55,SW,216,19.0,21.0,23,0.00,,,0.00,Wunderground v.1.15,2013-05-22 15:24:00,
2013-05-22 08:30:00,71.8,32.0,29.55,South,188,18.0,18.0,23,0.00,,,0.00,Wunderground v.1.15,2013-05-22 15:30:00,
2013-05-22 08:36:00,72.4,30.2,29.55,SW,218,18.0,21.0,21,0.00,,,0.00,Wunderground v.1.15,2013-05-22 15:36:00,
2013-05-22 08:42:00,72.5,34.7,29.55,SSW,207,20.0,22.0,25,0.00,,,0.00,Wunderground v.1.15,2013-05-22 15:42:00,
2013-05-22 08:48:00,70.2,33.7,29.55,SSW,199,23.0,31.0,26,0.00,,,0.00,Wunderground v.1.15,2013-05-22 15:48:00,
2013-05-22 08:54:00,70.4,33.9,29.55,South,180,25.0,26.0,26,0.00,,,0.00,Wunderground v.1.15,2013-05-22 15:54:00,
2013-05-22 09:00:00,70.6,34.0,29.55,SSE,161,25.0,25.0,26,0.00,,,0.00,Wunderground v.1.15,2013-05-22 16:00:00,
2013-05-22 09:06:00,71.0,33.4,29.55,SSW,194,25.0,25.0,25,0.00,,,0.00,Wunderground v.1.15,2013-05-22 16:06:00,
2013-05-22 09:12:00,71.0,33.4,29.55,South,180,25.0,28.0,25,0.00,,,0.00,Wunderground v.1.15,2013-05-22 16:12:00,
2013-05-22 09:18:00,71.5,33.8,29.54,South,172,25.0,28.0,25,0.00,,,0.00,Wunderground v.1.15,2013-05-22 16:18:00,
2013-05-22 09:24:00,73.2,34.2,29.55,South,176,20.0,24.0,24,0.00,,,0.00,Wunderground v.1.15,2013-05-22 16:24:00,
2013-05-22 09:30:00,74.6,34.3,29.54,South,190,16.0,16.0,23,0.00,,,0.00,Wunderground v.1.15,2013-05-22 16:30:00,
2013-05-22 09:36:00,76.3,29.7,29.54,SSW,212,17.0,22.0,18,0.00,,,0.00,Wunderground v.1.15,2013-05-22 16:36:00,
2013-05-22 09:42:00,78.0,29.6,29.53,SSW,212,16.0,17.0,17,0.00,,,0.00,Wunderground v.1.15,2013-05-22 16:42:00,
2013-05-22 09:48:00,78.6,28.6,29.53,SW,220,17.0,25.0,16,0.00,,,0.00,Wunderground v.1.15,2013-05-22 16:48:00,
2013-05-22 09:54:00,78.6,28.6,29.53,SW,226,22.0,30.0,16,0.00,,,0.00,Wunderground v.1.15,2013-05-22 16:54:00,
2013-05-22 10:00:00,78.5,28.5,29.52,SW,219,25.0,25.0,16,0.00,,,0.00,Wunderground v.1.15,2013-05-22 17:00:00,
2013-05-22 10:06:00,78.7,28.7,29.53,SW,217,25.0,33.0,16,0.00,,,0.00,Wunderground v.1.15,2013-05-22 17:06:00,
2013-05-22 10:12:00,78.9,30.4,29.52,SSW,206,24.0,27.0,17,0.00,,,0.00,Wunderground v.1.15,2013-05-22 17:12:00,
2013-05-22 10:18:00,79.4,27.7,29.53,SW,234,22.0,27.0,15,0.00,,,0.00,Wunderground v.1.15,2013-05-22 17:18:00,
2013-05-22 10:24:00,79.8,28.0,29.52,SW,222,22.0,24.0,15,0.00,,,0.00,Wunderground v.1.15,2013-05-22 17:24:00,
2013-05-22 10:30:00,80.4,28.5,29.52,SSW,207,21.0,21.0,15,0.00,,,0.00,Wunderground v.1.15,2013-05-22 17:30:00,
2013-05-22 10:36:00,80.8,27.1,29.53,SW,230,21.0,24.0,14,0.00,,,0.00,Wunderground v.1.15,2013-05-22 17:36:00,
2013-05-22 10:42:00,81.4,27.6,29.52,SSW,205,20.0,27.0,14,0.00,,,0.00,Wunderground v.1.15,2013-05-22 17:42:00,
2013-05-22 10:48:00,81.9,26.2,29.51,SSW,198,21.0,32.0,13,0.00,,,0.00,Wunderground v.1.15,2013-05-22 17:48:00,
2013-05-22 10:54:00,81.6,26.0,29.51,SSW,210,24.0,24.0,13,0.00,,,0.00,Wunderground v.1.15,2013-05-22 17:54:00,
2013-05-22 11:00:00,82.0,26.3,29.51,SSW,198,23.0,23.0,13,0.00,,,0.00,Wunderground v.1.15,2013-05-22 18:00:00,
2013-05-22 11:06:00,82.4,26.6,29.51,SW,214,23.0,30.0,13,0.00,,,0.00,Wunderground v.1.15,2013-05-22 18:06:00,
2013-05-22 11:12:00,81.7,27.8,29.50,SW,227,25.0,35.0,14,0.00,,,0.00,Wunderground v.1.15,2013-05-22 18:12:00,
2013-05-22 11:18:00,82.0,26.3,29.50,SSW,199,26.0,35.0,13,0.00,,,0.00,Wunderground v.1.15,2013-05-22 18:18:00,
2013-05-22 11:24:00,82.7,28.6,29.50,South,188,25.0,26.0,14,0.00,,,0.00,Wunderground v.1.15,2013-05-22 18:24:00,
2013-05-22 11:30:00,83.5,27.5,29.50,SSW,205,24.0,32.0,13,0.00,,,0.00,Wunderground v.1.15,2013-05-22 18:30:00,
2013-05-22 11:36:00,83.6,27.5,29.49,SSW,201,25.0,32.0,13,0.00,,,0.00,Wunderground v.1.15,2013-05-22 18:36:00,
2013-05-22 11:42:00,83.7,27.6,29.49,SSW,196,25.0,35.0,13,0.00,,,0.00,Wunderground v.1.15,2013-05-22 18:42:00,
2013-05-22 11:48:00,83.7,27.6,29.50,SSW,200,27.0,35.0,13,0.00,,,0.00,Wunderground v.1.15,2013-05-22 18:48:00,
2013-05-22 11:54:00,83.8,25.7,29.50,SSW,210,26.0,29.0,12,0.00,,,0.00,Wunderground v.1.15,2013-05-22 18:54:00,
2013-05-22 12:00:00,83.9,25.8,29.50,SSW,211,25.0,25.0,12,0.00,,,0.00,Wunderground v.1.15,2013-05-22 19:00:00,
2013-05-22 12:06:00,84.5,26.3,29.49,SW,215,25.0,32.0,12,0.00,,,0.00,Wunderground v.1.15,2013-05-22 19:06:00,
2013-05-22 12:12:00,84.7,26.4,29.50,WSW,240,26.0,30.0,12,0.00,,,0.00,Wunderground v.1.15,2013-05-22 19:12:00,
2013-05-22 12:18:00,84.6,26.4,29.49,SSW,195,27.0,34.0,12,0.00,,,0.00,Wunderground v.1.15,2013-05-22 19:18:00,
2013-05-22 12:24:00,84.1,26.0,29.49,SSW,200,29.0,36.0,12,0.00,,,0.00,Wunderground v.1.15,2013-05-22 19:24:00,
2013-05-22 12:30:00,84.2,26.1,29.48,SSW,211,29.0,32.0,12,0.00,,,0.00,Wunderground v.1.15,2013-05-22 19:30:00,
2013-05-22 12:36:00,84.4,28.2,29.49,SSW,205,28.0,38.0,13,0.00,,,0.00,Wunderground v.1.15,2013-05-22 19:36:00,
2013-05-22 12:42:00,84.7,26.4,29.49,SSW,205,27.0,30.0,12,0.00,,,0.00,Wunderground v.1.15,2013-05-22 19:42:00,
2013-05-22 12:48:00,85.0,28.6,29.49,SSW,207,27.0,35.0,13,0.00,,,0.00,Wunderground v.1.15,2013-05-22 19:48:00,
2013-05-22 12:54:00,85.4,28.9,29.49,SW,222,25.0,28.0,13,0.00,,,0.00,Wunderground v.1.15,2013-05-22 19:54:00,
2013-05-22 13:00:00,85.6,27.1,29.48,SSW,209,24.0,25.0,12,0.00,,,0.00,Wunderground v.1.15,2013-05-22 20:00:00,
2013-05-22 13:06:00,85.5,29.0,29.48,SW,225,26.0,32.0,13,0.00,,,0.00,Wunderground v.1.15,2013-05-22 20:06:00,
2013-05-22 13:12:00,85.3,28.9,29.48,SSW,206,25.0,34.0,13,0.00,,,0.00,Wunderground v.1.15,2013-05-22 20:12:00,
2013-05-22 13:18:00,85.1,28.7,29.48,SSW,202,27.0,36.0,13,0.00,,,0.00,Wunderground v.1.15,2013-05-22 20:18:00,
2013-05-22 13:24:00,85.4,27.0,29.48,SSW,207,29.0,33.0,12,0.00,,,0.00,Wunderground v.1.15,2013-05-22 20:24:00,
2013-05-22 13:30:00,86.4,27.8,29.48,SSW,209,26.0,32.0,12,0.00,,,0.00,Wunderground v.1.15,2013-05-22 20:30:00,
2013-05-22 13:36:00,86.0,25.4,29.48,SW,227,27.0,33.0,11,0.00,,,0.00,Wunderground v.1.15,2013-05-22 20:36:00,
2013-05-22 13:42:00,85.3,26.9,29.48,SW,227,28.0,28.0,12,0.00,,,0.00,Wunderground v.1.15,2013-05-22 20:42:00,
2013-05-22 13:48:00,85.7,27.2,29.48,SW,236,26.0,32.0,12,0.00,,,0.00,Wunderground v.1.15,2013-05-22 20:48:00,
2013-05-22 13:54:00,85.6,25.0,29.48,South,188,27.0,30.0,11,0.00,,,0.00,Wunderground v.1.15,2013-05-22 20:54:00,
2013-05-22 14:00:00,85.7,27.2,29.48,SSW,199,27.0,34.0,12,0.00,,,0.00,Wunderground v.1.15,2013-05-22 21:00:00,
2013-05-22 14:06:00,85.5,25.0,29.48,SW,234,28.0,34.0,11,0.00,,,0.00,Wunderground v.1.15,2013-05-22 21:06:00,
2013-05-22 14:12:00,85.1,24.7,29.49,SW,232,28.0,28.0,11,0.00,,,0.00,Wunderground v.1.15,2013-05-22 21:12:00,
2013-05-22 14:18:00,85.3,26.9,29.49,SW,221,25.0,33.0,12,0.00,,,0.00,Wunderground v.1.15,2013-05-22 21:18:00,
2013-05-22 14:24:00,85.6,25.0,29.48,SSW,200,25.0,33.0,11,0.00,,,0.00,Wunderground v.1.15,2013-05-22 21:24:00,
2013-05-22 14:30:00,85.3,26.9,29.48,SSW,192,27.0,27.0,12,0.00,,,0.00,Wunderground v.1.15,2013-05-22 21:30:00,
2013-05-22 14:36:00,85.4,24.9,29.48,SW,231,26.0,32.0,11,0.00,,,0.00,Wunderground v.1.15,2013-05-22 21:36:00,
2013-05-22 14:42:00,85.2,24.7,29.48,SW,227,25.0,29.0,11,0.00,,,0.00,Wunderground v.1.15,2013-05-22 21:42:00,
2013-05-22 14:48:00,84.8,26.5,29.48,SW,236,27.0,38.0,12,0.00,,,0.00,Wunderground v.1.15,2013-05-22 21:48:00,
2013-05-22 14:54:00,84.5,26.3,29.48,SW,222,28.0,33.0,12,0.00,,,0.00,Wunderground v.1.15,2013-05-22 21:54:00,
2013-05-22 15:00:00,84.7,26.4,29.47,SW,227,26.0,33.0,12,0.00,,,0.00,Wunderground v.1.15,2013-05-22 22:00:00,
2013-05-22 15:06:00,84.5,24.2,29.48,SW,229,27.0,33.0,11,0.00,,,0.00,Wunderground v.1.15,2013-05-22 22:06:00,
2013-05-22 15:12:00,84.7,24.4,29.48,SW,234,25.0,33.0,11,0.00,,,0.00,Wunderground v.1.15,2013-05-22 22:12:00,
2013-05-22 15:18:00,84.0,23.8,29.48,SW,223,26.0,34.0,11,0.00,,,0.00,Wunderground v.1.15,2013-05-22 22:18:00,
2013-05-22 15:24:00,84.3,26.1,29.48,WSW,240,25.0,33.0,12,0.00,,,0.00,Wunderground v.1.15,2013-05-22 22:24:00,
2013-05-22 15:30:00,83.7,25.7,29.47,SW,229,25.0,34.0,12,0.00,,,0.00,Wunderground v.1.15,2013-05-22 22:30:00,
2013-05-22 15:36:00,83.0,25.1,29.48,WSW,240,27.0,34.0,12,0.00,,,0.00,Wunderground v.1.15,2013-05-22 22:36:00,
2013-05-22 15:42:00,83.0,25.1,29.47,SW,223,27.0,27.0,12,0.00,,,0.00,Wunderground v.1.15,2013-05-22 22:42:00,
2013-05-22 15:48:00,82.9,25.1,29.47,SW,229,25.0,27.0,12,0.00,,,0.00,Wunderground v.1.15,2013-05-22 22:48:00,
2013-05-22 15:54:00,83.0,25.1,29.47,WSW,244,24.0,27.0,12,0.00,,,0.00,Wunderground v.1.15,2013-05-22 22:54:00,
2013-05-22 15:59:00,82.3,24.6,29.48,SW,231,26.0,34.0,12,0.00,,,0.00,Wunderground v.1.15,2013-05-22 22:59:00,
2013-05-22 16:06:00,82.0,24.4,29.47,WSW,237,26.0,34.0,12,0.00,,,0.00,Wunderground v.1.15,2013-05-22 23:06:00,
2013-05-22 16:12:00,81.8,24.2,29.47,SW,227,28.0,31.0,12,0.00,,,0.00,Wunderground v.1.15,2013-05-22 23:12:00,
2013-05-22 16:18:00,81.6,24.0,29.47,SW,227,27.0,32.0,12,0.00,,,0.00,Wunderground v.1.15,2013-05-22 23:18:00,
2013-05-22 16:24:00,80.9,23.5,29.47,WSW,257,27.0,31.0,12,0.00,,,0.00,Wunderground v.1.15,2013-05-22 23:24:00,
2013-05-22 16:30:00,80.9,23.5,29.47,SW,221,28.0,30.0,12,0.00,,,0.00,Wunderground v.1.15,2013-05-22 23:30:00,
2013-05-22 16:36:00,80.7,23.3,29.47,SW,232,27.0,32.0,12,0.00,,,0.00,Wunderground v.1.15,2013-05-22 23:36:00,
2013-05-22 16:42:00,80.3,21.0,29.48,WSW,238,26.0,27.0,11,0.00,,,0.00,Wunderground v.1.15,2013-05-22 23:42:00,
2013-05-22 16:48:00,80.0,20.7,29.48,SW,221,27.0,35.0,11,0.00,,,0.00,Wunderground v.1.15,2013-05-22 23:48:00,
2013-05-22 16:54:00,79.9,20.7,29.47,SW,221,27.0,36.0,11,0.00,,,0.00,Wunderground v.1.15,2013-05-22 23:54:00,
2013-05-22 17:00:00,79.6,24.4,29.47,SW,232,28.0,37.0,13,0.00,,,0.00,Wunderground v.1.15,2013-05-23 00:00:00,
2013-05-22 17:06:00,79.2,25.9,29.47,SW,229,28.0,37.0,14,0.00,,,0.00,Wunderground v.1.15,2013-05-23 00:06:00,
2013-05-22 17:12:00,78.7,25.5,29.46,WSW,246,29.0,30.0,14,0.00,,,0.00,Wunderground v.1.15,2013-05-23 00:12:00,
2013-05-22 17:18:00,78.4,23.5,29.47,WSW,241,30.0,34.0,13,0.00,,,0.00,Wunderground v.1.15,2013-05-23 00:18:00,
2013-05-22 17:24:00,78.3,23.4,29.45,SW,229,29.0,37.0,13,0.00,,,0.00,Wunderground v.1.15,2013-05-23 00:24:00,
2013-05-22 17:30:00,77.7,22.9,29.45,SW,221,31.0,37.0,13,0.00,,,0.00,Wunderground v.1.15,2013-05-23 00:30:00,
2013-05-22 17:36:00,77.5,22.7,29.46,WSW,241,31.0,37.0,13,0.00,,,0.00,Wunderground v.1.15,2013-05-23 00:36:00,
2013-05-22 17:42:00,77.2,20.6,29.45,SW,223,29.0,30.0,12,0.00,,,0.00,Wunderground v.1.15,2013-05-23 00:42:00,
2013-05-22 17:48:00,76.6,22.0,29.45,SW,236,32.0,33.0,13,0.00,,,0.00,Wunderground v.1.15,2013-05-23 00:48:00,
2013-05-22 17:54:00,76.2,21.7,29.45,WSW,254,33.0,34.0,13,0.00,,,0.00,Wunderground v.1.15,2013-05-23 00:54:00,
2013-05-22 18:00:00,76.2,21.7,29.47,SW,229,27.0,27.0,13,0.00,,,0.00,Wunderground v.1.15,2013-05-23 01:00:00,
2013-05-22 18:06:00,75.9,21.5,29.46,SW,222,26.0,36.0,13,0.00,,,0.00,Wunderground v.1.15,2013-05-23 01:06:00,
2013-05-22 18:12:00,75.3,22.8,29.46,SW,227,32.0,32.0,14,0.00,,,0.00,Wunderground v.1.15,2013-05-23 01:12:00,
2013-05-22 18:18:00,74.9,22.5,29.45,WSW,242,31.0,34.0,14,0.00,,,0.00,Wunderground v.1.15,2013-05-23 01:18:00,
2013-05-22 18:24:00,74.4,22.1,29.45,WSW,240,32.0,35.0,14,0.00,,,0.00,Wunderground v.1.15,2013-05-23 01:24:00,
2013-05-22 18:30:00,73.8,23.2,29.45,WSW,238,33.0,33.0,15,0.00,,,0.00,Wunderground v.1.15,2013-05-23 01:30:00,
2013-05-22 18:36:00,73.3,22.8,29.45,SSW,200,34.0,40.0,15,0.00,,,0.00,Wunderground v.1.15,2013-05-23 01:36:00,
2013-05-22 18:42:00,72.7,22.3,29.45,SW,232,34.0,36.0,15,0.00,,,0.00,Wunderground v.1.15,2013-05-23 01:42:00,
2013-05-22 18:48:00,72.3,22.0,29.46,SW,225,32.0,36.0,15,0.00,,,0.00,Wunderground v.1.15,2013-05-23 01:48:00,
2013-05-22 18:54:00,71.9,23.2,29.45,SW,226,32.0,42.0,16,0.00,,,0.00,Wunderground v.1.15,2013-05-23 01:54:00,
2013-05-22 19:00:00,71.3,22.7,29.45,SW,224,34.0,34.0,16,0.00,,,0.00,Wunderground v.1.15,2013-05-23 02:00:00,
2013-05-22 19:06:00,71.0,22.5,29.45,SSW,213,32.0,34.0,16,0.00,,,0.00,Wunderground v.1.15,2013-05-23 02:06:00,
2013-05-22 19:12:00,70.7,22.3,29.48,SW,219,30.0,31.0,16,0.00,,,0.00,Wunderground v.1.15,2013-05-23 02:12:00,
2013-05-22 19:18:00,70.4,22.0,29.47,SW,224,28.0,33.0,16,0.00,,,0.00,Wunderground v.1.15,2013-05-23 02:18:00,
2013-05-22 19:24:00,69.9,23.1,29.46,SW,223,27.0,30.0,17,0.00,,,0.00,Wunderground v.1.15,2013-05-23 02:24:00,
2013-05-22 19:30:00,69.4,22.7,29.48,SW,224,28.0,32.0,17,0.00,,,0.00,Wunderground v.1.15,2013-05-23 02:30:00,
2013-05-22 19:36:00,69.0,23.7,29.48,SW,223,29.0,39.0,18,0.00,,,0.00,Wunderground v.1.15,2013-05-23 02:36:00,
2013-05-22 19:42:00,68.6,23.4,29.48,SSW,210,28.0,28.0,18,0.00,,,0.00,Wunderground v.1.15,2013-05-23 02:42:00,
2013-05-22 19:48:00,68.3,24.4,29.49,South,188,24.0,28.0,19,0.00,,,0.00,Wunderground v.1.15,2013-05-23 02:48:00,
2013-05-22 19:54:00,67.9,24.1,29.49,SW,225,23.0,33.0,19,0.00,,,0.00,Wunderground v.1.15,2013-05-23 02:54:00,
2013-05-22 20:00:00,67.7,23.9,29.50,South,188,25.0,25.0,19,0.00,,,0.00,Wunderground v.1.15,2013-05-23 03:00:00,
2013-05-22 20:06:00,67.4,24.9,29.49,SW,217,25.0,31.0,20,0.00,,,0.00,Wunderground v.1.15,2013-05-23 03:06:00,
2013-05-22 20:12:00,67.1,24.6,29.50,SW,217,24.0,25.0,20,0.00,,,0.00,Wunderground v.1.15,2013-05-23 03:12:00,
2013-05-22 20:17:00,66.8,24.4,29.50,SSW,211,26.0,29.0,20,0.00,,,0.00,Wunderground v.1.15,2013-05-23 03:17:00,
2013-05-22 20:24:00,66.5,25.3,29.50,SW,221,26.0,26.0,21,0.00,,,0.00,Wunderground v.1.15,2013-05-23 03:24:00,
2013-05-22 20:30:00,66.2,26.2,29.50,SSW,212,24.0,24.0,22,0.00,,,0.00,Wunderground v.1.15,2013-05-23 03:30:00,
2013-05-22 20:36:00,65.9,25.9,29.50,SSW,201,23.0,28.0,22,0.00,,,0.00,Wunderground v.1.15,2013-05-23 03:36:00,
2013-05-22 20:42:00,65.5,26.7,29.51,South,187,24.0,24.0,23,0.00,,,0.00,Wunderground v.1.15,2013-05-23 03:42:00,
2013-05-22 20:48:00,65.2,26.4,29.51,South,186,22.0,32.0,23,0.00,,,0.00,Wunderground v.1.15,2013-05-23 03:48:00,
2013-05-22 20:54:00,65.0,27.3,29.51,SSW,194,24.0,33.0,24,0.00,,,0.00,Wunderground v.1.15,2013-05-23 03:54:00,
2013-05-22 21:00:00,64.7,27.0,29.52,SW,218,23.0,32.0,24,0.00,,,0.00,Wunderground v.1.15,2013-05-23 04:00:00,
2013-05-22 21:02:00,64.6,27.0,29.52,South,180,23.0,32.0,24,0.00,,,0.00,Wunderground v.1.15,2013-05-23 04:02:00,
2013-05-22 21:04:00,64.5,26.9,29.52,SSW,205,22.0,32.0,24,0.00,,,0.00,Wunderground v.1.15,2013-05-23 04:04:00,
2013-05-22 21:06:00,64.4,26.8,29.52,South,190,21.0,32.0,24,0.00,,,0.00,Wunderground v.1.15,2013-05-23 04:06:00,
2013-05-22 21:10:00,64.4,27.8,29.53,South,191,21.0,33.0,25,0.00,,,0.00,Wunderground v.1.15,2013-05-23 04:10:00,
2013-05-22 21:12:00,64.3,26.7,29.53,South,190,22.0,33.0,24,0.00,,,0.00,Wunderground v.1.15,2013-05-23 04:12:00,
2013-05-22 21:18:00,64.2,27.6,29.53,SSW,192,22.0,33.0,25,0.00,,,0.00,Wunderground v.1.15,2013-05-23 04:18:00,
2013-05-22 21:24:00,63.8,27.3,29.54,SSW,199,22.0,25.0,25,0.00,,,0.00,Wunderground v.1.15,2013-05-23 04:24:00,
2013-05-22 21:30:00,63.6,28.1,29.53,SSW,198,24.0,25.0,26,0.00,,,0.00,Wunderground v.1.15,2013-05-23 04:30:00,
2013-05-22 21:36:00,63.3,27.8,29.54,South,182,25.0,28.0,26,0.00,,,0.00,Wunderground v.1.15,2013-05-23 04:36:00,
2013-05-22 21:42:00,62.9,27.5,29.53,South,191,26.0,33.0,26,0.00,,,0.00,Wunderground v.1.15,2013-05-23 04:42:00,
2013-05-22 21:48:00,62.7,28.2,29.52,South,186,28.0,35.0,27,0.00,,,0.00,Wunderground v.1.15,2013-05-23 04:48:00,
2013-05-22 21:54:00,62.6,28.1,29.53,SSW,193,30.0,34.0,27,0.00,,,0.00,Wunderground v.1.15,2013-05-23 04:54:00,
2013-05-22 22:00:00,62.6,28.1,29.52,South,184,31.0,36.0,27,0.00,,,0.00,Wunderground v.1.15,2013-05-23 05:00:00,
2013-05-22 22:06:00,62.9,27.5,29.53,SSW,192,33.0,36.0,26,0.00,,,0.00,Wunderground v.1.15,2013-05-23 05:06:00,
2013-05-22 22:12:00,62.8,27.4,29.53,SSW,196,30.0,32.0,26,0.00,,,0.00,Wunderground v.1.15,2013-05-23 05:12:00,
2013-05-22 22:18:00,63.0,26.6,29.52,SSW,205,25.0,32.0,25,0.00,,,0.00,Wunderground v.1.15,2013-05-23 05:18:00,
2013-05-22 22:24:00,63.2,26.8,29.53,South,184,25.0,31.0,25,0.00,,,0.00,Wunderground v.1.15,2013-05-23 05:24:00,
2013-05-22 22:30:00,63.2,26.8,29.53,SSW,195,26.0,26.0,25,0.00,,,0.00,Wunderground v.1.15,2013-05-23 05:30:00,
2013-05-22 22:36:00,62.9,27.5,29.53,South,182,23.0,30.0,26,0.00,,,0.00,Wunderground v.1.15,2013-05-23 05:36:00,
2013-05-22 22:42:00,63.3,26.8,29.53,SSW,198,27.0,40.0,25,0.00,,,0.00,Wunderground v.1.15,2013-05-23 05:42:00,
2013-05-22 22:48:00,63.2,27.7,29.53,SSW,200,28.0,40.0,26,0.00,,,0.00,Wunderground v.1.15,2013-05-23 05:48:00,
2013-05-22 22:54:00,62.9,27.5,29.52,SSW,202,25.0,32.0,26,0.00,,,0.00,Wunderground v.1.15,2013-05-23 05:54:00,
2013-05-22 23:00:00,62.6,28.1,29.52,SW,230,24.0,24.0,27,0.00,,,0.00,Wunderground v.1.15,2013-05-23 06:00:00,
2013-05-22 23:06:00,62.4,27.9,29.53,SSW,202,25.0,30.0,27,0.00,,,0.00,Wunderground v.1.15,2013-05-23 06:06:00,
2013-05-22 23:12:00,62.5,27.1,29.53,SSW,206,27.0,28.0,26,0.00,,,0.00,Wunderground v.1.15,2013-05-23 06:12:00,
2013-05-22 23:18:00,62.1,27.7,29.53,South,189,26.0,35.0,27,0.00,,,0.00,Wunderground v.1.15,2013-05-23 06:18:00,
2013-05-22 23:24:00,61.8,26.5,29.54,SSW,209,28.0,29.0,26,0.00,,,0.00,Wunderground v.1.15,2013-05-23 06:24:00,
2013-05-22 23:29:00,61.4,27.1,29.53,WSW,238,23.0,28.0,27,0.00,,,0.00,Wunderground v.1.15,2013-05-23 06:29:00,
2013-05-22 23:36:00,61.6,27.3,29.54,SW,219,24.0,28.0,27,0.00,,,0.00,Wunderground v.1.15,2013-05-23 06:36:00,
2013-05-22 23:42:00,61.6,27.3,29.55,SSW,211,22.0,23.0,27,0.00,,,0.00,Wunderground v.1.15,2013-05-23 06:42:00,
2013-05-22 23:48:00,61.6,26.3,29.55,SW,215,21.0,29.0,26,0.00,,,0.00,Wunderground v.1.15,2013-05-23 06:48:00,
2013-05-22 23:54:00,61.7,26.4,29.55,SSW,209,21.0,22.0,26,0.00,,,0.00,Wunderground v.1.15,2013-05-23 06:54:00,